Regional Weather Roundup
Issued by NWS

Home | Current Version | Previous Version | Graphics & Text | Print | Product List | Glossary On
Versions: 1 2 3 4 5 6 7 8 9 10 11 12 13 14 15 16 17 18 19 20 21 22 23 24 25 26 27 28 29 30 31 32 33 34 35 36 37 38 39 40 41 42 43 44 45 46 47 48 49 50
000
ASUS45 KBOI 170310
RWRID

IDAHO REGIONAL WEATHER ROUNDUP
NATIONAL WEATHER SERVICE BOISE ID
900 PM MDT WED AUG 16 2017

NOTE: "FAIR" INDICATES FEW OR NO CLOUDS BELOW 12000 FEET
WITH NO SIGNIFICANT WEATHER AND/OR OBSTRUCTIONS TO VISIBILITY

IDZ012-014-170400-
SOUTHWEST IDAHO


CITY           SKY/WX    TMP DP  RH WIND       PRES   REMARKS
BOISE          CLEAR     79  36  21 NW6       29.94S
CALDWELL       CLEAR     79  46  31 NW3       29.93R
MOUNTAIN HOME  CLEAR     79  36  21 W9        29.96R
$$

IDZ016-017-170400-
SOUTHCENTRAL IDAHO


CITY           SKY/WX    TMP DP  RH WIND       PRES   REMARKS
BURLEY         CLEAR     69  48  47 S8        30.01R
JEROME         CLEAR     73  46  38 SW6       30.01R
TWIN FALLS     CLEAR     67  45  45 VRB6      30.02R
$$

IDZ019>023-170400-
SOUTHEAST IDAHO


CITY           SKY/WX    TMP DP  RH WIND       PRES   REMARKS
IDAHO FALLS    CLEAR     74  39  28 S10       30.02R
POCATELLO      CLEAR     72  41  32 SW9       30.03R
REXBURG        CLEAR     70  37  29 S8        30.02S
$$

IDZ006-010-011-018-031-032-170400-
CENTRAL IDAHO MOUNTAINS


CITY           SKY/WX    TMP DP  RH WIND       PRES   REMARKS
MCCALL         CLEAR     71  27  19 CALM      30.07R
HAILEY         PTCLDY    73  37  27 SW9       30.07R
STANLEY          N/A     63  34  33 CALM      30.16R
SALMON         CLEAR     70  46  42 SE6       29.96R
CHALLIS        CLEAR     72  34  24 W8        30.01R
$$

IDZ002-004-006-007-026-170400-
NORTHERN IDAHO


CITY           SKY/WX    TMP DP  RH WIND       PRES   REMARKS
LEWISTON       CLEAR     82  41  23 NW8       29.91R
LOWELL           N/A     70  48  45 CALM      29.91R
COEUR D`ALENE  PTCLDY    74  42  31 S6        29.93F
MULLAN PASS    CLEAR     60  34  37 VRB5      30.13S
$$



USA.gov is the U.S. government's official web portal to all federal, state and local government web resources and services.